C/2005 G1 (LINEAR)

Epoch 2006 Mar. 6.0 TT = JDT 2453800.5  

T 2006 Feb. 27.38405 TT                                 Nakano

q   4.9606649            (2000.0)            P               Q

z  +0.0000423      Peri.  113.82505     -0.45073432     -0.34070068

 +/-0.0000014      Node   299.58665     -0.15386175     +0.94011712

e   0.9997901      Incl.  108.41446     +0.87929809     -0.01014152

From 267 observations 2005 Mar. 22-2007 Feb. 5, mean residual 0".57.

   (1/a)org.= +0.000012, (1/a)fut.= +0.000044 (+/-0.000001), Q= 8.

Residuals in seconds of arc 

2005/                     050416 213  0.2-  0.8-    050706 J78  0.1+  0.8+  

050322 704  0.3+  0.6+    050416 213  0.3-  0.9-    050706 J78  0.1-  0.8+  

050322 704  0.1-  0.6-    050417 232  0.1-  0.1+    050706 J78  0.5-  1.3+  

050322 704  0.5-  0.5-    050418 372  0.9-  0.4+    050718 673  0.1+  0.2+  

050401 704  0.9+  0.5+    050427 213  0.3+  0.2-    050718 673  0.1+  0.2-  

050401 704  0.1-  1.0-    050427 213  0.5+  0.3-    050718 673  0.6-  0.0   

050401 704  0.4+  0.3-    050427 213  0.4+  0.1-    050718 673  0.1-  0.4+  

050401 704  0.9+  0.0     050427 213  0.6+  0.0     050718 673  0.5-  0.5+  

050402 734  0.2-  0.4+    050428 204  0.4-  0.2+    050726 118  0.5-  0.3+  

050402 734  0.7+  0.7-    050428 204  0.1-  0.2+    050726 118  0.3-  0.1+  

050402 734  0.1-  0.1-    050428 204  0.1-  0.3-    050726 118  0.0   0.0   

050402 673  0.1+  0.5+    050428 118  0.2-  0.7+    050726 118  0.2+  0.2+  

050402 673  0.4-  0.0     050428 118  0.1-  0.5+    050727 118  0.5+  0.9+  

050402 673  0.9+  0.7+    050429 360  0.2+  0.6+    050727 118  0.3+  0.8+  

050402 673  0.1+  0.5+    050429 360  0.2-  0.1+    050727 118  0.2-  1.0+  

050403 J95  0.2-  0.3+    050429 360  0.2-  0.5+    050727 118  0.5+  0.6+  

050403 J95  0.4-  0.7+    050430 232 (1.3+  3.0-)   050808 224  0.2-  0.1+  

050403 J95  0.5-  0.6+    050430 232 (1.0+  4.4-)   050808 224  0.1+  0.2+  

050403 461  0.7+  0.3+    050501 215  0.2-  0.3+    050808 224  0.2+  0.1+  

050403 461  0.1+  0.5+    050501 215  0.2-  0.3+    050829 215  0.4-  0.0   

050403 461  0.1+  0.6+    050501 213  1.9-  1.1-    050911 J97  0.6+  0.7+  

050403 461  0.0   0.3+    050501 213  1.5-  0.9-    050918 J97  0.5-  0.8+  

050403 H06 (2.0+  2.1-)   050501 213  1.3-  0.8-    050918 118  0.1+  0.1+  

050403 734  0.2-  0.3+    050503 349  0.0   0.3+    050918 118  0.2+  0.5+  

050403 734  0.7+  0.6+    050503 349  0.4+  0.4-    050922 J97  0.1-  0.7-  

050403 734  1.6+  0.1+    050503 349  0.0   0.0     051221 704  0.1+  0.3+  

050403 H06  1.2+  1.7-    050504 360  0.3+  0.4+    051221 704  0.3+  0.5+  

050403 H06 (3.3-  3.2+)   050504 360  0.4-  0.0     051221 704  0.5+  0.2+  

050404 012  0.4-  0.1-    050504 360  0.3-  0.5+    051221 704  1.2+  0.7+  

050404 012  1.2+  1.3+    050507 213  0.0   0.0     051221 704  1.2+  0.3+  

050404 012  0.1+  0.2-    050507 213  0.1-  0.0     2006/                   

050404 118  0.0   0.9+    050507 213  0.0   0.1-    060102 349  0.8+  0.4-  

050404 118  0.3+  0.2-    050510 699  0.4-  0.4-    060102 349  0.5+  0.2-  

050404 118  0.2-  0.5+    050510 699  0.3+  1.0-    060102 349  0.5+  0.1+  

050404 118  1.8+  0.4+    050510 699  0.7+  1.4-    060103 349  0.7+  0.3-  

050404 012  0.1-  0.6-    050510 699  0.0   0.6-    060103 349  0.8+  0.4-  

050404 012  0.6+  0.3-    050512 372  0.8-  1.5+    060103 349  0.5+  0.4-  

050404 651  0.1+  0.2-    050513 673  0.1+  0.8+    060107 561  0.7-  0.3-  

050404 651  0.2-  0.5+    050513 673  0.2+  0.9+    060107 561  0.8-  0.5+  

050404 651  0.1+  0.6+    050513 673  0.0   0.8+    060107 561  0.3+  0.2+  

050404 850  0.1+  0.2+    050513 673  0.0   0.5+    060126 349  0.1-  1.0-  

050404 850  0.0   0.9-    050514 213  0.0   0.3+    060126 349  0.1+  0.8-  

050404 850  0.5-  0.3-    050514 213  0.0   0.3+    060126 349  0.2+  0.9-  

050404 704  0.1-  0.6-    050514 213  0.0   0.2-    060211 349  0.1-  0.1+  

050404 850  0.4-  0.2+    050515 360  0.2-  0.5+    060211 349  0.3-  0.1-  

050404 704  0.3-  0.2+    050515 360  0.3+  0.2+    060211 349  0.1-  0.1-  

050404 704  0.0   0.2+    050515 372  1.8-  1.2+    060212 204  0.3-  0.3+  

050404 704  0.2+  0.1-    050515 360  0.1-  0.4+    060212 204  0.3-  0.3+  

050405 118  0.1+  0.7-    050527 048  0.6-  0.7-    060217 J87  0.2+  0.4-  

050405 118  0.1+  0.2+    050527 048  0.6+  0.4-    060217 J87  0.0   0.1-  

050405 118  0.2-  0.8+    050527 048  0.3+  1.2-    060217 J87  0.2-  0.5-  

050405 704  0.1+  0.3+    050527 048  0.3+  0.7-    060225 H06  0.4+  0.6-  

050405 704  0.7-  0.4+    050527 048  0.2-  0.4+    060225 H06  0.5+  0.8+  

050405 704  0.3+  1.5+    050528 104  0.7+  0.4+    060304 349  0.1+  0.4+  

050405 704  0.3-  0.7-    050528 104  0.2+  0.6+    060304 349  0.2+  0.1+  

050405 360 (0.7-  2.5+)   050528 104  0.1+  0.5+    060325 H06  0.2+  0.9-  

050405 360 (0.3-  2.5+)   050528 104  0.2+  0.1-    060328 349  0.1+  1.0-  

050405 360 (0.6-  2.3+)   050528 130  0.1+  0.8-    060328 349  0.1+  1.1-  

050405 372  0.3-  0.1+    050528 130  0.2-  0.4-    060328 349  0.1+  1.2-  

050405 372  0.4-  0.3+    050528 048 (0.6-  3.3-)   060401 118  0.6-  0.1+  

050405 104  0.4+  0.2-    050528 048 (0.1-  2.9-)   060401 118  0.8-  0.2+  

050405 104  0.1+  0.2-    050528 048  1.0-  1.0-    060401 118  0.7-  0.1+  

050405 104  0.5+  0.3-    050528 048  0.3-  0.4-    060403 D88 (2.0+  0.4-) 

050406 704  0.5-  0.4+    050528 048  0.3+  0.3-    060403 D88  1.6+  0.1-  

050406 704  0.8-  0.9+    050529 673  0.2-  0.9+    060403 D88  1.1+  0.0   

050406 704  0.5-  1.7+    050529 673  0.5+  0.5+    060407 704  0.3-  0.5+  

050406 704  0.2-  0.6+    050529 673  0.2-  0.8+    060407 704  0.4-  0.3-  

050406 704  0.6-  0.1-    050529 673  0.1-  1.0+    060407 704  1.1-  0.3-  

050410 213  0.5+  0.3-    050602 699  0.1+  0.6-    060413 213  1.0-  0.3-  

050410 213  0.2-  0.6-    050602 699 (0.8+  2.5-)   060413 213  1.1-  0.4-  

050410 213  0.7-  0.2-    050602 699  0.6+  1.0-    060413 213  1.1-  0.1-  

050411 213  0.3-  0.7-    050602 699  0.3-  0.3-    060415 232  1.1+  0.2-  

050413 372  0.7-  1.0-    050604 360  0.1-  0.5+    060415 232  0.7+  0.3-  

050413 D83  0.2+  1.5-    050604 360  0.5-  0.5+    060415 232  0.1+  0.8-  

050413 D83  0.9+  0.9-    050604 360  0.1-  0.2+    060504 349  0.5-  0.1+  

050413 D83  0.1-  1.6-    050609 699  0.9+  0.8-    060504 349  0.8-  0.4+  

050413 D83  0.3-  1.3-    050609 699  1.5-  1.8-    060504 349  0.9-  0.3+  

050413 372  0.2-  1.5-    050609 699  0.3+  0.4-    060531 561 (2.1+  0.1+) 

050413 213  0.2+  0.4+    050609 699  0.8+  0.6-    060601 561  0.5+  0.4+  

050414 213  0.4+  0.1+    050613 704  0.3+  0.7-    060601 561  0.4-  0.1-  

050414 400  0.0   0.2+    050613 704  0.3+  0.6-    060625 561  0.6-  0.3-  

050414 400  0.2-  0.0     050613 704  0.2+  0.1-    060625 561  0.6-  0.1-  

050414 400  0.7-  1.0-    050613 704  0.6+  0.1+    060625 561  1.0-  0.1+  

050414 360  0.1+  0.0     050613 704  0.2-  0.0     060630 215  1.1+  0.7+  

050414 360  0.2+  0.3-    050701 J78  1.3-  0.0     061214 215  0.1+  1.0-  

050414 360  0.2-  0.3+    050702 J78  0.5-  0.1+    061227 703  0.1+  0.4+  

050414 372  0.6+  1.7-    050702 J78  0.2-  0.1-    061227 703  0.1-  0.1+  

050415 850  0.1+  0.1-    050702 J78  0.1-  0.4-    061227 703  0.1-  0.3+  

050415 850  0.1+  0.2-    050703 213  0.1-  0.5+    061227 703  0.0   0.4-  

050415 850  0.1-  0.1-    050703 213  0.1-  0.2+    061229 349  0.3-  0.2-  

050416 D74  0.1-  0.5+    050703 213  0.2-  0.2+    061229 349  0.1-  0.1+  

050416 D74  0.4+  0.4+    050704 J78  0.1-  0.1+    2007/                   

050416 D74  0.6+  0.2+    050704 J78  0.2+  0.2-    070205 850  0.8+  0.3+  

050416 213  0.9-  0.5-    050704 J78  1.0+  0.9-    070205 850  0.4-  1.1+  



NAKANO

         **** Don't distribute anyone except personal use only ****

                (C) Copyright 2007 OAA/ComputingSection

write mail from CFAD0::NAKANO on 2007-02-11 07:48:26(JST).

 

    C/2005 G1 (LINEAR)

Epoch 2006 Mar. 6.0 TT = JDT 2453800.5  

T 2006 Feb. 27.38615 TT                                 Nakano

q   4.9606592            (2000.0)            P               Q

z  +0.0000423      Peri.  113.82533     -0.45073617     -0.34069901

 +/-0.0000015      Node   299.58669     -0.15385739     +0.94011768

e   0.9997900      Incl.  108.41446     +0.87929791     -0.01014595

From 254 observations 2005 Mar. 22-2006 June 1, mean residual 0".58.

   (1/a)org.= +0.000008, (1/a)fut.= +0.000039 (+/-0.000001), Q= 8.



NAKANO

         **** Don't distribute anyone except personal use only ****

                (C) Copyright 2006 OAA/ComputingSection

write mail from CFAD0::NAKANO on 2006-06-20 02:59:54(JST).





    C/2005 G1 (LINEAR)

Epoch 2006 Mar. 6.0 TT = JDT 2453800.5  

T 2006 Feb. 27.36339 TT                                 Nakano

q   4.9607504            (2000.0)            P               Q

z  +0.0000445      Peri.  113.82204     -0.45071642     -0.34072418

 +/-0.0000020      Node   299.58664     -0.15391103     +0.94010910

e   0.9997792      Incl.  108.41446     +0.87929864     -0.01009534

From 215 observations 2005 Mar. 22-2006 Jan. 26, mean residual 0".56.

   (1/a)org.= +0.000010, (1/a)fut.= +0.000041 (+/-0.000002), Q= 7.



NAKANO

         **** Don't distribute anyone except personal use only ****

                (C) Copyright 2006 OAA/ComputingSection

write mail from CFAD0::NAKANO on 2006-02-06 06:49:21(JST).

 



◎C/2005 G1の軌道と予報位置です



 上尾の門田健一氏は,昨年9月以来となるこの彗星の再観測に成功しました.

氏の CCD全光度は,1月2日に17.7等,3日に17.6等でした.なお,山本速報

2498(HICQ 2006(p.103))にある軌道からずれはありませんでした.



    C/2005 G1 (LINEAR)

Epoch 2006 Mar. 6.0 TT = JDT 2453800.5  

T 2006 Feb. 27.38161 TT                                 Nakano

q   4.9606716            (2000.0)            P               Q

z  +0.0000480      Peri.  113.82448     -0.45072997     -0.34070206

